owner,sensor,date,latitude,longitude,vertical_datum,mass_concentration_of_oxygen_in_sea_water,qcFlag 
SCCF RECON,ioos:station:SCCF:56:1,2019-03-01T05:00:00Z,26.4645,-82.1044,1.45,8.56,1111122 
SCCF RECON,ioos:station:SCCF:56:1,2019-03-01T06:00:00Z,26.4645,-82.1044,1.35,6.53,1111122 
SCCF RECON,ioos:station:SCCF:56:1,2019-03-01T07:00:00Z,26.4645,-82.1044,1.259,5.64,1111122 
SCCF RECON,ioos:station:SCCF:56:1,2019-03-01T08:00:00Z,26.4645,-82.1044,1.16,5.16,1111122 
SCCF RECON,ioos:station:SCCF:56:1,2019-03-01T09:00:00Z,26.4645,-82.1044,1.08,4.71,1111122 
SCCF RECON,ioos:station:SCCF:56:1,2019-03-01T10:00:00Z,26.4645,-82.1044,1.06,4.56,1111122 
SCCF RECON,ioos:station:SCCF:56:1,2019-03-01T11:00:00Z,26.4645,-82.1044,1.13,4.39,1111122 
SCCF RECON,ioos:station:SCCF:56:1,2019-03-01T12:00:00Z,26.4645,-82.1044,1.26,5.75,1111122 
SCCF RECON,ioos:station:SCCF:56:1,2019-03-01T13:00:00Z,26.4645,-82.1044,1.372,6.04,1111122 
SCCF RECON,ioos:station:SCCF:56:1,2019-03-01T14:00:00Z,26.4645,-82.1044,1.47,6.51,1111122 
SCCF RECON,ioos:station:SCCF:56:1,2019-03-01T15:00:00Z,26.4645,-82.1044,1.55,7.34,1111122 
SCCF RECON,ioos:station:SCCF:56:1,2019-03-01T16:00:00Z,26.4645,-82.1044,1.61,8.69,1111122 
SCCF RECON,ioos:station:SCCF:56:1,2019-03-01T17:00:00Z,26.4645,-82.1044,1.63,9.11,1111122 
SCCF RECON,ioos:station:SCCF:56:1,2019-03-01T18:00:00Z,26.4645,-82.1044,1.61,9.17,1111122 
SCCF RECON,ioos:station:SCCF:56:1,2019-03-01T19:00:00Z,26.4645,-82.1044,1.556,8.52,1111122 
SCCF RECON,ioos:station:SCCF:56:1,2019-03-01T20:00:00Z,26.4645,-82.1044,1.51,8.77,1111122 
SCCF RECON,ioos:station:SCCF:56:1,2019-03-01T21:00:00Z,26.4645,-82.1044,1.49,9.1,1111122 
SCCF RECON,ioos:station:SCCF:56:1,2019-03-01T22:00:00Z,26.4645,-82.1044,1.488,9.11,1111122 
SCCF RECON,ioos:station:SCCF:56:1,2019-03-01T23:00:00Z,26.4645,-82.1044,1.57,9.13,1111122 
SCCF RECON,ioos:station:SCCF:56:1,2019-03-02T05:00:00Z,26.4645,-82.1044,1.634,7.64,1111122 
SCCF RECON,ioos:station:SCCF:56:1,2019-03-02T06:00:00Z,26.4645,-82.1044,1.53,7.62,1111122 
SCCF RECON,ioos:station:SCCF:56:1,2019-03-02T07:00:00Z,26.4645,-82.1044,1.406,6.69,1111122 
SCCF RECON,ioos:station:SCCF:56:1,2019-03-02T08:00:00Z,26.4645,-82.1044,1.28,5.84,1111122 
SCCF RECON,ioos:station:SCCF:56:1,2019-03-02T09:00:00Z,26.4645,-82.1044,1.16,5.13,1111122 
SCCF RECON,ioos:station:SCCF:56:1,2019-03-02T10:00:00Z,26.4645,-82.1044,1.07,4.65,1111122 
SCCF RECON,ioos:station:SCCF:56:1,2019-03-02T11:00:00Z,26.4645,-82.1044,1.08,3.99,1111122 
SCCF RECON,ioos:station:SCCF:56:1,2019-03-02T12:00:00Z,26.4645,-82.1044,1.17,4.65,1111122 
SCCF RECON,ioos:station:SCCF:56:1,2019-03-02T13:00:00Z,26.4645,-82.1044,1.307,5.4,1111122 
SCCF RECON,ioos:station:SCCF:56:1,2019-03-02T14:00:00Z,26.4645,-82.1044,1.41,6.04,1111122 
SCCF RECON,ioos:station:SCCF:56:1,2019-03-02T15:00:00Z,26.4645,-82.1044,1.49,7.17,1111122 
SCCF RECON,ioos:station:SCCF:56:1,2019-03-02T16:00:00Z,26.4645,-82.1044,1.569,8.27,1111122 
SCCF RECON,ioos:station:SCCF:56:1,2019-03-02T17:00:00Z,26.4645,-82.1044,1.63,9.2,1111122 
SCCF RECON,ioos:station:SCCF:56:1,2019-03-02T18:00:00Z,26.4645,-82.1044,1.63,9.18,1111122 
SCCF RECON,ioos:station:SCCF:56:1,2019-03-02T19:00:00Z,26.4645,-82.1044,1.56,9.09,1111122 
SCCF RECON,ioos:station:SCCF:56:1,2019-03-02T20:00:00Z,26.4645,-82.1044,1.48,9.07,1111122 
SCCF RECON,ioos:station:SCCF:56:1,2019-03-02T21:00:00Z,26.4645,-82.1044,1.43,9.08,1111122 
SCCF RECON,ioos:station:SCCF:56:1,2019-03-02T22:00:00Z,26.4645,-82.1044,1.4,9.03,1111122 
SCCF RECON,ioos:station:SCCF:56:1,2019-03-02T23:00:00Z,26.4645,-82.1044,1.443,9.03,1111122 
SCCF RECON,ioos:station:SCCF:56:1,2019-03-03T05:00:00Z,26.4645,-82.1044,1.67,9.05,1111122 
SCCF RECON,ioos:station:SCCF:56:1,2019-03-03T06:00:00Z,26.4645,-82.1044,1.588,8.5,1111122 
SCCF RECON,ioos:station:SCCF:56:1,2019-03-03T07:00:00Z,26.4645,-82.1044,1.46,7.74,1111122 
SCCF RECON,ioos:station:SCCF:56:1,2019-03-03T08:00:00Z,26.4645,-82.1044,1.31,6.86,1111122 
SCCF RECON,ioos:station:SCCF:56:1,2019-03-03T09:00:00Z,26.4645,-82.1044,1.2,5.56,1111122 
SCCF RECON,ioos:station:SCCF:56:1,2019-03-03T10:00:00Z,26.4645,-82.1044,1.101,4.64,1111122 
SCCF RECON,ioos:station:SCCF:56:1,2019-03-03T11:00:00Z,26.4645,-82.1044,1.04,4.09,1111122 
SCCF RECON,ioos:station:SCCF:56:1,2019-03-03T12:00:00Z,26.4645,-82.1044,1.04,3.74,1111122 
SCCF RECON,ioos:station:SCCF:56:1,2019-03-03T13:00:00Z,26.4645,-82.1044,1.17,5.09,1111122 
SCCF RECON,ioos:station:SCCF:56:1,2019-03-03T14:00:00Z,26.4645,-82.1044,1.32,6.17,1111122 
SCCF RECON,ioos:station:SCCF:56:1,2019-03-03T15:00:00Z,26.4645,-82.1044,1.44,6.73,1111122 
SCCF RECON,ioos:station:SCCF:56:1,2019-03-03T16:00:00Z,26.4645,-82.1044,1.55,8.35,1111122 
SCCF RECON,ioos:station:SCCF:56:1,2019-03-03T17:00:00Z,26.4645,-82.1044,1.62,9.06,1111122 
SCCF RECON,ioos:station:SCCF:56:1,2019-03-03T18:00:00Z,26.4645,-82.1044,1.61,9.02,1111122 
SCCF RECON,ioos:station:SCCF:56:1,2019-03-03T19:00:00Z,26.4645,-82.1044,1.548,9.0,1111122 
SCCF RECON,ioos:station:SCCF:56:1,2019-03-03T20:00:00Z,26.4645,-82.1044,1.461,9.03,1111122 
SCCF RECON,ioos:station:SCCF:56:1,2019-03-03T21:00:00Z,26.4645,-82.1044,1.402,8.93,1111122 
SCCF RECON,ioos:station:SCCF:56:1,2019-03-03T22:00:00Z,26.4645,-82.1044,1.37,8.9,1111122 
SCCF RECON,ioos:station:SCCF:56:1,2019-03-03T23:00:00Z,26.4645,-82.1044,1.4,8.93,1111122 
SCCF RECON,ioos:station:SCCF:56:1,2019-03-04T05:00:00Z,26.4645,-82.1044,1.82,7.98,1111122 
SCCF RECON,ioos:station:SCCF:56:1,2019-03-04T06:00:00Z,26.4645,-82.1044,1.74,7.32,1111122 
SCCF RECON,ioos:station:SCCF:56:1,2019-03-04T07:00:00Z,26.4645,-82.1044,1.6,7.19,1111122 
SCCF RECON,ioos:station:SCCF:56:1,2019-03-04T08:00:00Z,26.4645,-82.1044,1.45,6.95,1111122 
SCCF RECON,ioos:station:SCCF:56:1,2019-03-04T09:00:00Z,26.4645,-82.1044,1.34,6.27,1111122 
SCCF RECON,ioos:station:SCCF:56:1,2019-03-04T10:00:00Z,26.4645,-82.1044,1.25,5.62,1111122 
SCCF RECON,ioos:station:SCCF:56:1,2019-03-04T11:00:00Z,26.4645,-82.1044,1.16,5.01,1111122 
SCCF RECON,ioos:station:SCCF:56:1,2019-03-04T12:00:00Z,26.4645,-82.1044,1.11,4.39,1111122 
SCCF RECON,ioos:station:SCCF:56:1,2019-03-04T13:00:00Z,26.4645,-82.1044,1.161,3.87,1111122 
SCCF RECON,ioos:station:SCCF:56:1,2019-03-04T14:00:00Z,26.4645,-82.1044,1.32,4.48,1111122 
SCCF RECON,ioos:station:SCCF:56:1,2019-03-04T15:00:00Z,26.4645,-82.1044,1.45,5.76,1111122 
SCCF RECON,ioos:station:SCCF:56:1,2019-03-04T16:00:00Z,26.4645,-82.1044,1.559,7.0,1111122 
SCCF RECON,ioos:station:SCCF:56:1,2019-03-04T17:00:00Z,26.4645,-82.1044,1.64,7.82,1111122 
SCCF RECON,ioos:station:SCCF:56:1,2019-03-04T18:00:00Z,26.4645,-82.1044,1.67,7.94,1111122 
SCCF RECON,ioos:station:SCCF:56:1,2019-03-04T19:00:00Z,26.4645,-82.1044,1.627,8.3,1111122 
SCCF RECON,ioos:station:SCCF:56:1,2019-03-04T20:00:00Z,26.4645,-82.1044,1.51,8.12,1111122 
SCCF RECON,ioos:station:SCCF:56:1,2019-03-04T21:00:00Z,26.4645,-82.1044,1.43,8.11,1111122 
SCCF RECON,ioos:station:SCCF:56:1,2019-03-04T22:00:00Z,26.4645,-82.1044,1.37,8.38,1111122 
SCCF RECON,ioos:station:SCCF:56:1,2019-03-04T23:00:00Z,26.4645,-82.1044,1.31,7.96,1111122 
SCCF RECON,ioos:station:SCCF:56:1,2019-03-05T05:00:00Z,26.4645,-82.1044,1.74,6.88,1111122 
SCCF RECON,ioos:station:SCCF:56:1,2019-03-05T06:00:00Z,26.4645,-82.1044,1.705,6.69,1111122 
SCCF RECON,ioos:station:SCCF:56:1,2019-03-05T07:00:00Z,26.4645,-82.1044,1.596,6.64,1111122 
SCCF RECON,ioos:station:SCCF:56:1,2019-03-05T08:00:00Z,26.4645,-82.1044,1.45,6.28,1111122 
SCCF RECON,ioos:station:SCCF:56:1,2019-03-05T09:00:00Z,26.4645,-82.1044,1.33,5.43,1111122 
SCCF RECON,ioos:station:SCCF:56:1,2019-03-05T10:00:00Z,26.4645,-82.1044,1.242,4.71,1111122 
SCCF RECON,ioos:station:SCCF:56:1,2019-03-05T11:00:00Z,26.4645,-82.1044,1.15,3.97,1111122 
SCCF RECON,ioos:station:SCCF:56:1,2019-03-05T12:00:00Z,26.4645,-82.1044,1.07,3.11,1111122 
SCCF RECON,ioos:station:SCCF:56:1,2019-03-05T13:00:00Z,26.4645,-82.1044,1.05,2.6,1111122 
SCCF RECON,ioos:station:SCCF:56:1,2019-03-05T14:00:00Z,26.4645,-82.1044,1.17,3.1,1111122 
SCCF RECON,ioos:station:SCCF:56:1,2019-03-05T15:00:00Z,26.4645,-82.1044,1.34,5.66,1111122 
SCCF RECON,ioos:station:SCCF:56:1,2019-03-05T16:00:00Z,26.4645,-82.1044,1.5,6.97,1111122 
SCCF RECON,ioos:station:SCCF:56:1,2019-03-05T17:00:00Z,26.4645,-82.1044,1.612,7.4,1111122 
SCCF RECON,ioos:station:SCCF:56:1,2019-03-05T18:00:00Z,26.4645,-82.1044,1.69,7.13,1111122 
SCCF RECON,ioos:station:SCCF:56:1,2019-03-05T19:00:00Z,26.4645,-82.1044,1.62,6.07,1111122 
SCCF RECON,ioos:station:SCCF:56:1,2019-03-05T20:00:00Z,26.4645,-82.1044,1.456,6.34,1111122 
SCCF RECON,ioos:station:SCCF:56:1,2019-03-05T21:00:00Z,26.4645,-82.1044,1.342,6.12,1111122 
SCCF RECON,ioos:station:SCCF:56:1,2019-03-05T23:00:00Z,26.4645,-82.1044,1.29,6.67,1111122 
SCCF RECON,ioos:station:SCCF:56:1,2019-03-06T05:00:00Z,26.4645,-82.1044,1.64,5.24,1111122 
SCCF RECON,ioos:station:SCCF:56:1,2019-03-06T06:00:00Z,26.4645,-82.1044,1.7,5.24,1111122 
SCCF RECON,ioos:station:SCCF:56:1,2019-03-06T07:00:00Z,26.4645,-82.1044,1.6,5.4,1111122 
SCCF RECON,ioos:station:SCCF:56:1,2019-03-06T08:00:00Z,26.4645,-82.1044,1.46,5.19,1111122 
SCCF RECON,ioos:station:SCCF:56:1,2019-03-06T09:00:00Z,26.4645,-82.1044,1.338,4.5,1111122 
SCCF RECON,ioos:station:SCCF:56:1,2019-03-06T10:00:00Z,26.4645,-82.1044,1.228,4.16,1111122 
SCCF RECON,ioos:station:SCCF:56:1,2019-03-06T11:00:00Z,26.4645,-82.1044,1.13,3.75,1111122 
SCCF RECON,ioos:station:SCCF:56:1,2019-03-06T12:00:00Z,26.4645,-82.1044,1.008,3.47,1111122 
SCCF RECON,ioos:station:SCCF:56:1,2019-03-06T13:00:00Z,26.4645,-82.1044,0.934,3.39,1111122 
SCCF RECON,ioos:station:SCCF:56:1,2019-03-06T14:00:00Z,26.4645,-82.1044,0.92,3.37,1111122 
SCCF RECON,ioos:station:SCCF:56:1,2019-03-06T15:00:00Z,26.4645,-82.1044,1.021,4.1,1111122 
SCCF RECON,ioos:station:SCCF:56:1,2019-03-06T16:00:00Z,26.4645,-82.1044,1.209,7.16,1111122 
SCCF RECON,ioos:station:SCCF:56:1,2019-03-06T17:00:00Z,26.4645,-82.1044,1.37,8.81,1111122 
SCCF RECON,ioos:station:SCCF:56:1,2019-03-06T18:00:00Z,26.4645,-82.1044,1.45,8.37,1111122 
SCCF RECON,ioos:station:SCCF:56:1,2019-03-06T19:00:00Z,26.4645,-82.1044,1.49,7.85,1111122 
SCCF RECON,ioos:station:SCCF:56:1,2019-03-06T20:00:00Z,26.4645,-82.1044,1.45,8.76,1111122 
SCCF RECON,ioos:station:SCCF:56:1,2019-03-06T21:00:00Z,26.4645,-82.1044,1.352,8.39,1111122 
SCCF RECON,ioos:station:SCCF:56:1,2019-03-06T22:00:00Z,26.4645,-82.1044,1.276,8.57,1111122 
SCCF RECON,ioos:station:SCCF:56:1,2019-03-06T23:00:00Z,26.4645,-82.1044,1.23,8.6,1111122 
SCCF RECON,ioos:station:SCCF:56:1,2019-03-07T05:00:00Z,26.4645,-82.1044,1.69,7.03,1111122 
SCCF RECON,ioos:station:SCCF:56:1,2019-03-07T06:00:00Z,26.4645,-82.1044,1.74,6.71,1111122 
SCCF RECON,ioos:station:SCCF:56:1,2019-03-07T07:00:00Z,26.4645,-82.1044,1.709,6.64,1111122 
SCCF RECON,ioos:station:SCCF:56:1,2019-03-07T08:00:00Z,26.4645,-82.1044,1.59,6.52,1111122 
SCCF RECON,ioos:station:SCCF:56:1,2019-03-07T09:00:00Z,26.4645,-82.1044,1.461,6.33,1111122 
SCCF RECON,ioos:station:SCCF:56:1,2019-03-07T10:00:00Z,26.4645,-82.1044,1.36,6.11,1111122 
SCCF RECON,ioos:station:SCCF:56:1,2019-03-07T11:00:00Z,26.4645,-82.1044,1.27,5.82,1111122 
SCCF RECON,ioos:station:SCCF:56:1,2019-03-07T12:00:00Z,26.4645,-82.1044,1.19,5.52,1111122 
SCCF RECON,ioos:station:SCCF:56:1,2019-03-07T13:00:00Z,26.4645,-82.1044,1.15,5.37,1111122 
SCCF RECON,ioos:station:SCCF:56:1,2019-03-07T14:00:00Z,26.4645,-82.1044,1.153,5.45,1111122 
SCCF RECON,ioos:station:SCCF:56:1,2019-03-07T15:00:00Z,26.4645,-82.1044,1.284,6.8,1111122 
SCCF RECON,ioos:station:SCCF:56:1,2019-03-07T16:00:00Z,26.4645,-82.1044,1.441,7.86,1111122 
SCCF RECON,ioos:station:SCCF:56:1,2019-03-07T17:00:00Z,26.4645,-82.1044,1.55,8.91,1111122 
SCCF RECON,ioos:station:SCCF:56:1,2019-03-07T18:00:00Z,26.4645,-82.1044,1.64,9.44,1111122 
SCCF RECON,ioos:station:SCCF:56:1,2019-03-07T19:00:00Z,26.4645,-82.1044,1.67,9.59,1111122 
SCCF RECON,ioos:station:SCCF:56:1,2019-03-07T20:00:00Z,26.4645,-82.1044,1.64,8.76,1111122 
SCCF RECON,ioos:station:SCCF:56:1,2019-03-07T21:00:00Z,26.4645,-82.1044,1.54,8.96,1111122 
SCCF RECON,ioos:station:SCCF:56:1,2019-03-07T22:00:00Z,26.4645,-82.1044,1.43,9.11,1111122 
SCCF RECON,ioos:station:SCCF:56:1,2019-03-07T23:00:00Z,26.4645,-82.1044,1.34,9.24,1111122 
SCCF RECON,ioos:station:SCCF:56:1,2019-03-08T05:00:00Z,26.4645,-82.1044,1.69,7.53,1111122 
SCCF RECON,ioos:station:SCCF:56:1,2019-03-08T06:00:00Z,26.4645,-82.1044,1.748,7.64,1111122 
SCCF RECON,ioos:station:SCCF:56:1,2019-03-08T07:00:00Z,26.4645,-82.1044,1.77,7.44,1111122 
SCCF RECON,ioos:station:SCCF:56:1,2019-03-08T08:00:00Z,26.4645,-82.1044,1.712,7.3,1111122 
SCCF RECON,ioos:station:SCCF:56:1,2019-03-08T09:00:00Z,26.4645,-82.1044,1.58,7.22,1111122 
SCCF RECON,ioos:station:SCCF:56:1,2019-03-08T10:00:00Z,26.4645,-82.1044,1.46,6.89,1111122 
SCCF RECON,ioos:station:SCCF:56:1,2019-03-08T11:00:00Z,26.4645,-82.1044,1.35,6.55,1111122 
SCCF RECON,ioos:station:SCCF:56:1,2019-03-08T12:00:00Z,26.4645,-82.1044,1.26,6.17,1111122 
SCCF RECON,ioos:station:SCCF:56:1,2019-03-08T13:00:00Z,26.4645,-82.1044,1.214,5.81,1111122 
SCCF RECON,ioos:station:SCCF:56:1,2019-03-08T14:00:00Z,26.4645,-82.1044,1.23,5.72,1111122 
SCCF RECON,ioos:station:SCCF:56:1,2019-03-08T16:00:00Z,26.4645,-82.1044,1.511,8.88,1111122 
SCCF RECON,ioos:station:SCCF:56:1,2019-03-08T17:00:00Z,26.4645,-82.1044,1.641,9.32,1111122 
SCCF RECON,ioos:station:SCCF:56:1,2019-03-08T18:00:00Z,26.4645,-82.1044,1.72,9.05,1111122 
SCCF RECON,ioos:station:SCCF:56:1,2019-03-08T19:00:00Z,26.4645,-82.1044,1.756,9.18,1111122 
SCCF RECON,ioos:station:SCCF:56:1,2019-03-08T20:00:00Z,26.4645,-82.1044,1.75,9.63,1111122 
SCCF RECON,ioos:station:SCCF:56:1,2019-03-08T21:00:00Z,26.4645,-82.1044,1.659,9.02,1111122 
SCCF RECON,ioos:station:SCCF:56:1,2019-03-08T22:00:00Z,26.4645,-82.1044,1.519,9.19,1111122 
SCCF RECON,ioos:station:SCCF:56:1,2019-03-08T23:00:00Z,26.4645,-82.1044,1.42,9.34,1111122 
SCCF RECON,ioos:station:SCCF:56:1,2019-03-09T05:00:00Z,26.4645,-82.1044,1.594,7.88,1111122 
SCCF RECON,ioos:station:SCCF:56:1,2019-03-09T06:00:00Z,26.4645,-82.1044,1.69,7.75,1111122 
SCCF RECON,ioos:station:SCCF:56:1,2019-03-09T07:00:00Z,26.4645,-82.1044,1.76,7.67,1111122 
SCCF RECON,ioos:station:SCCF:56:1,2019-03-09T08:00:00Z,26.4645,-82.1044,1.76,7.81,1111122 
SCCF RECON,ioos:station:SCCF:56:1,2019-03-09T09:00:00Z,26.4645,-82.1044,1.66,7.42,1111122 
SCCF RECON,ioos:station:SCCF:56:1,2019-03-09T10:00:00Z,26.4645,-82.1044,1.53,7.16,1111122 
SCCF RECON,ioos:station:SCCF:56:1,2019-03-09T11:00:00Z,26.4645,-82.1044,1.419,6.96,1111122 
SCCF RECON,ioos:station:SCCF:56:1,2019-03-09T12:00:00Z,26.4645,-82.1044,1.33,6.4,1111122 
SCCF RECON,ioos:station:SCCF:56:1,2019-03-09T13:00:00Z,26.4645,-82.1044,1.262,6.05,1111122 
SCCF RECON,ioos:station:SCCF:56:1,2019-03-09T14:00:00Z,26.4645,-82.1044,1.22,5.83,1111122 
SCCF RECON,ioos:station:SCCF:56:1,2019-03-09T15:00:00Z,26.4645,-82.1044,1.29,7.39,1111122 
SCCF RECON,ioos:station:SCCF:56:1,2019-03-09T16:00:00Z,26.4645,-82.1044,1.45,9.51,1111122 
SCCF RECON,ioos:station:SCCF:56:1,2019-03-09T17:00:00Z,26.4645,-82.1044,1.595,9.42,1111122 
SCCF RECON,ioos:station:SCCF:56:1,2019-03-09T18:00:00Z,26.4645,-82.1044,1.697,9.54,1111122 
SCCF RECON,ioos:station:SCCF:56:1,2019-03-09T19:00:00Z,26.4645,-82.1044,1.761,9.54,1111122 
SCCF RECON,ioos:station:SCCF:56:1,2019-03-09T20:00:00Z,26.4645,-82.1044,1.77,9.48,1111122 
SCCF RECON,ioos:station:SCCF:56:1,2019-03-09T21:00:00Z,26.4645,-82.1044,1.72,9.47,1111122 
SCCF RECON,ioos:station:SCCF:56:1,2019-03-09T22:00:00Z,26.4645,-82.1044,1.61,9.42,1111122 
SCCF RECON,ioos:station:SCCF:56:1,2019-03-09T23:00:00Z,26.4645,-82.1044,1.49,9.39,1111122 
SCCF RECON,ioos:station:SCCF:56:1,2019-03-10T05:00:00Z,26.4645,-82.1044,1.54,7.52,1111122 
SCCF RECON,ioos:station:SCCF:56:1,2019-03-10T06:00:00Z,26.4645,-82.1044,1.663,8.09,1111122 
SCCF RECON,ioos:station:SCCF:56:1,2019-03-10T07:00:00Z,26.4645,-82.1044,1.74,7.75,1111122 
SCCF RECON,ioos:station:SCCF:56:1,2019-03-10T08:00:00Z,26.4645,-82.1044,1.779,7.51,1111122 
SCCF RECON,ioos:station:SCCF:56:1,2019-03-10T09:00:00Z,26.4645,-82.1044,1.76,7.74,1111122 
SCCF RECON,ioos:station:SCCF:56:1,2019-03-10T10:00:00Z,26.4645,-82.1044,1.67,7.41,1111122 
SCCF RECON,ioos:station:SCCF:56:1,2019-03-10T11:00:00Z,26.4645,-82.1044,1.57,7.01,1111122 
SCCF RECON,ioos:station:SCCF:56:1,2019-03-10T12:00:00Z,26.4645,-82.1044,1.5,6.78,1111122 
SCCF RECON,ioos:station:SCCF:56:1,2019-03-10T13:00:00Z,26.4645,-82.1044,1.416,6.25,1111122 
SCCF RECON,ioos:station:SCCF:56:1,2019-03-10T14:00:00Z,26.4645,-82.1044,1.36,5.83,1111122 
SCCF RECON,ioos:station:SCCF:56:1,2019-03-10T15:00:00Z,26.4645,-82.1044,1.37,5.45,1111122 
SCCF RECON,ioos:station:SCCF:56:1,2019-03-10T16:00:00Z,26.4645,-82.1044,1.5,8.46,1111122 
SCCF RECON,ioos:station:SCCF:56:1,2019-03-10T17:00:00Z,26.4645,-82.1044,1.64,9.37,1111122 
SCCF RECON,ioos:station:SCCF:56:1,2019-03-10T18:00:00Z,26.4645,-82.1044,1.74,9.21,1111122 
SCCF RECON,ioos:station:SCCF:56:1,2019-03-10T19:00:00Z,26.4645,-82.1044,1.8,9.38,1111122 
SCCF RECON,ioos:station:SCCF:56:1,2019-03-10T20:00:00Z,26.4645,-82.1044,1.81,9.34,1111122 
SCCF RECON,ioos:station:SCCF:56:1,2019-03-10T21:00:00Z,26.4645,-82.1044,1.77,9.25,1111122 
SCCF RECON,ioos:station:SCCF:56:1,2019-03-10T22:00:00Z,26.4645,-82.1044,1.69,9.25,1111122 
SCCF RECON,ioos:station:SCCF:56:1,2019-03-11T04:00:00Z,26.4645,-82.1044,1.243,7.27,1111122 
SCCF RECON,ioos:station:SCCF:56:1,2019-03-11T05:00:00Z,26.4645,-82.1044,1.37,5.77,1111122 
SCCF RECON,ioos:station:SCCF:56:1,2019-03-11T06:00:00Z,26.4645,-82.1044,1.507,7.11,1111122 
SCCF RECON,ioos:station:SCCF:56:1,2019-03-11T07:00:00Z,26.4645,-82.1044,1.6,7.31,1111122 
SCCF RECON,ioos:station:SCCF:56:1,2019-03-11T08:00:00Z,26.4645,-82.1044,1.67,7.29,1111122 
SCCF RECON,ioos:station:SCCF:56:1,2019-03-11T09:00:00Z,26.4645,-82.1044,1.7,7.55,1111122 
SCCF RECON,ioos:station:SCCF:56:1,2019-03-11T10:00:00Z,26.4645,-82.1044,1.67,7.23,1111122 
SCCF RECON,ioos:station:SCCF:56:1,2019-03-11T11:00:00Z,26.4645,-82.1044,1.58,7.21,1111122 
SCCF RECON,ioos:station:SCCF:56:1,2019-03-11T12:00:00Z,26.4645,-82.1044,1.499,6.57,1111122 
SCCF RECON,ioos:station:SCCF:56:1,2019-03-11T13:00:00Z,26.4645,-82.1044,1.437,6.12,1111122 
SCCF RECON,ioos:station:SCCF:56:1,2019-03-11T14:00:00Z,26.4645,-82.1044,1.39,5.35,1111122 
SCCF RECON,ioos:station:SCCF:56:1,2019-03-11T15:00:00Z,26.4645,-82.1044,1.39,4.98,1111122 
SCCF RECON,ioos:station:SCCF:56:1,2019-03-11T16:00:00Z,26.4645,-82.1044,1.46,7.85,1111122 
SCCF RECON,ioos:station:SCCF:56:1,2019-03-11T17:00:00Z,26.4645,-82.1044,1.56,9.16,1111122 
SCCF RECON,ioos:station:SCCF:56:1,2019-03-11T18:00:00Z,26.4645,-82.1044,1.66,9.16,1111122 
SCCF RECON,ioos:station:SCCF:56:1,2019-03-11T19:00:00Z,26.4645,-82.1044,1.74,9.17,1111122 
SCCF RECON,ioos:station:SCCF:56:1,2019-03-11T20:00:00Z,26.4645,-82.1044,1.8,9.17,1111122 
SCCF RECON,ioos:station:SCCF:56:1,2019-03-11T21:00:00Z,26.4645,-82.1044,1.793,9.15,1111122 
SCCF RECON,ioos:station:SCCF:56:1,2019-03-11T22:00:00Z,26.4645,-82.1044,1.71,9.11,1111122 
SCCF RECON,ioos:station:SCCF:56:1,2019-03-11T23:00:00Z,26.4645,-82.1044,1.6,9.07,1111122 
SCCF RECON,ioos:station:SCCF:56:1,2019-03-12T04:00:00Z,26.4645,-82.1044,1.17,6.61,1111122 
SCCF RECON,ioos:station:SCCF:56:1,2019-03-12T05:00:00Z,26.4645,-82.1044,1.2,6.09,1111122 
SCCF RECON,ioos:station:SCCF:56:1,2019-03-12T06:00:00Z,26.4645,-82.1044,1.312,5.46,1111122 
SCCF RECON,ioos:station:SCCF:56:1,2019-03-12T07:00:00Z,26.4645,-82.1044,1.42,4.83,1111122 
SCCF RECON,ioos:station:SCCF:56:1,2019-03-12T08:00:00Z,26.4645,-82.1044,1.5,5.94,1111122 
SCCF RECON,ioos:station:SCCF:56:1,2019-03-12T09:00:00Z,26.4645,-82.1044,1.57,5.74,1111122 
SCCF RECON,ioos:station:SCCF:56:1,2019-03-12T10:00:00Z,26.4645,-82.1044,1.61,6.58,1111122 
SCCF RECON,ioos:station:SCCF:56:1,2019-03-12T11:00:00Z,26.4645,-82.1044,1.55,6.79,1111122 
SCCF RECON,ioos:station:SCCF:56:1,2019-03-12T12:00:00Z,26.4645,-82.1044,1.48,6.39,1111122 
SCCF RECON,ioos:station:SCCF:56:1,2019-03-12T13:00:00Z,26.4645,-82.1044,1.43,5.78,1111122 
SCCF RECON,ioos:station:SCCF:56:1,2019-03-12T14:00:00Z,26.4645,-82.1044,1.39,5.35,1111122 
SCCF RECON,ioos:station:SCCF:56:1,2019-03-12T15:00:00Z,26.4645,-82.1044,1.379,5.0,1111122 
SCCF RECON,ioos:station:SCCF:56:1,2019-03-12T16:00:00Z,26.4645,-82.1044,1.39,4.94,1111122 
SCCF RECON,ioos:station:SCCF:56:1,2019-03-12T17:00:00Z,26.4645,-82.1044,1.45,8.8,1111122 
SCCF RECON,ioos:station:SCCF:56:1,2019-03-12T18:00:00Z,26.4645,-82.1044,1.55,9.04,1111122 
SCCF RECON,ioos:station:SCCF:56:1,2019-03-12T19:00:00Z,26.4645,-82.1044,1.635,9.04,1111122 
SCCF RECON,ioos:station:SCCF:56:1,2019-03-12T20:00:00Z,26.4645,-82.1044,1.69,9.05,1111122 
SCCF RECON,ioos:station:SCCF:56:1,2019-03-12T21:00:00Z,26.4645,-82.1044,1.73,9.03,1111122 
SCCF RECON,ioos:station:SCCF:56:1,2019-03-12T22:00:00Z,26.4645,-82.1044,1.73,9.0,1111122 
SCCF RECON,ioos:station:SCCF:56:1,2019-03-12T23:00:00Z,26.4645,-82.1044,1.69,8.97,1111122 
SCCF RECON,ioos:station:SCCF:56:1,2019-03-13T04:00:00Z,26.4645,-82.1044,1.18,6.05,1111122 
SCCF RECON,ioos:station:SCCF:56:1,2019-03-13T05:00:00Z,26.4645,-82.1044,1.13,5.31,1111122 
SCCF RECON,ioos:station:SCCF:56:1,2019-03-13T06:00:00Z,26.4645,-82.1044,1.15,5.16,1111122 
SCCF RECON,ioos:station:SCCF:56:1,2019-03-13T07:00:00Z,26.4645,-82.1044,1.25,5.68,1111122 
SCCF RECON,ioos:station:SCCF:56:1,2019-03-13T08:00:00Z,26.4645,-82.1044,1.36,5.68,1111122 
SCCF RECON,ioos:station:SCCF:56:1,2019-03-13T09:00:00Z,26.4645,-82.1044,1.44,5.42,1111122 
SCCF RECON,ioos:station:SCCF:56:1,2019-03-13T10:00:00Z,26.4645,-82.1044,1.5,5.93,1111122 
SCCF RECON,ioos:station:SCCF:56:1,2019-03-13T11:00:00Z,26.4645,-82.1044,1.53,6.36,1111122 
SCCF RECON,ioos:station:SCCF:56:1,2019-03-13T12:00:00Z,26.4645,-82.1044,1.545,6.13,1111122 
SCCF RECON,ioos:station:SCCF:56:1,2019-03-13T13:00:00Z,26.4645,-82.1044,1.53,5.49,1111122 
SCCF RECON,ioos:station:SCCF:56:1,2019-03-13T14:00:00Z,26.4645,-82.1044,1.51,5.57,1111122 
SCCF RECON,ioos:station:SCCF:56:1,2019-03-13T15:00:00Z,26.4645,-82.1044,1.505,5.7,1111122 
SCCF RECON,ioos:station:SCCF:56:1,2019-03-13T16:00:00Z,26.4645,-82.1044,1.5,6.38,1111122 
SCCF RECON,ioos:station:SCCF:56:1,2019-03-13T17:00:00Z,26.4645,-82.1044,1.5,7.78,1111122 
SCCF RECON,ioos:station:SCCF:56:1,2019-03-13T18:00:00Z,26.4645,-82.1044,1.56,9.1,1111122 
SCCF RECON,ioos:station:SCCF:56:1,2019-03-13T19:00:00Z,26.4645,-82.1044,1.65,9.08,1111122 
SCCF RECON,ioos:station:SCCF:56:1,2019-03-13T20:00:00Z,26.4645,-82.1044,1.75,9.06,1111122 
SCCF RECON,ioos:station:SCCF:56:1,2019-03-13T21:00:00Z,26.4645,-82.1044,1.8,9.04,1111122 
SCCF RECON,ioos:station:SCCF:56:1,2019-03-13T22:00:00Z,26.4645,-82.1044,1.828,8.19,1111122 
SCCF RECON,ioos:station:SCCF:56:1,2019-03-13T23:00:00Z,26.4645,-82.1044,1.81,8.44,1111122 
SCCF RECON,ioos:station:SCCF:56:1,2019-03-14T04:00:00Z,26.4645,-82.1044,1.33,5.81,1111122 
SCCF RECON,ioos:station:SCCF:56:1,2019-03-14T05:00:00Z,26.4645,-82.1044,1.22,5.12,1111122 
SCCF RECON,ioos:station:SCCF:56:1,2019-03-14T06:00:00Z,26.4645,-82.1044,1.15,5.06,1111122 
SCCF RECON,ioos:station:SCCF:56:1,2019-03-14T07:00:00Z,26.4645,-82.1044,1.16,4.74,1111122 
SCCF RECON,ioos:station:SCCF:56:1,2019-03-14T08:00:00Z,26.4645,-82.1044,1.241,4.84,1111122 
SCCF RECON,ioos:station:SCCF:56:1,2019-03-14T09:00:00Z,26.4645,-82.1044,1.32,5.44,1111122 
SCCF RECON,ioos:station:SCCF:56:1,2019-03-14T10:00:00Z,26.4645,-82.1044,1.42,5.67,1111122 
SCCF RECON,ioos:station:SCCF:56:1,2019-03-14T11:00:00Z,26.4645,-82.1044,1.488,5.8,1111122 
SCCF RECON,ioos:station:SCCF:56:1,2019-03-14T12:00:00Z,26.4645,-82.1044,1.58,5.74,1111122 
SCCF RECON,ioos:station:SCCF:56:1,2019-03-14T13:00:00Z,26.4645,-82.1044,1.647,5.78,1111122 
SCCF RECON,ioos:station:SCCF:56:1,2019-03-14T14:00:00Z,26.4645,-82.1044,1.64,5.61,1111122 
SCCF RECON,ioos:station:SCCF:56:1,2019-03-14T15:00:00Z,26.4645,-82.1044,1.584,5.77,1111122 
SCCF RECON,ioos:station:SCCF:56:1,2019-03-14T16:00:00Z,26.4645,-82.1044,1.559,5.67,1111122 
SCCF RECON,ioos:station:SCCF:56:1,2019-03-14T17:00:00Z,26.4645,-82.1044,1.538,5.76,1111122 
SCCF RECON,ioos:station:SCCF:56:1,2019-03-14T18:00:00Z,26.4645,-82.1044,1.56,6.6,1111122 